www.pogodaiklimat.ru

Погода и климат >> Архив погоды >> Австрия >> Кремсмюнстер


ПОГОДА в Кремсмюнстере

  • Прогноз погоды в Кремсмюнстере
  • Монитор погоды в Кремсмюнстере

АРХИВ ПОГОДЫ в Кремсмюнстере

Время (UTC), дата Ветер
(напр.,м/с)
 
Видим.   Явления Облачность Т
(С)
Тd
(С)
f
(%)
Тe
(С)
Тes
(С)
Комфортность P
(гПа)
Po
(гПа)
Тmin
(С)
Tmax
(С)
R
(мм)
R24
(мм)
S
(см)
22 11.09 ЮЗ 4 н/о н/о +14.0 +11.5 85 +13 +13 1027.6 981.4
23 11.09 ЮЗ 4 н/о н/о +13.9 +11.4 85 +12 +12 1027.8 981.6
00 12.09 ЮЗ 4 н/о н/о +13.7 +11.2 85 +12 +12 1027.8 981.6
01 12.09 ЮЗ 4 н/о н/о +13.0 +10.7 86 +11 +11 1028.4 982.0
02 12.09 З 5 н/о н/о +13.3 +10.7 84 +11 +11 1029.1 982.7
03 12.09 З 4 н/о н/о +13.5 +10.9 84 +12 +12 1029.4 983.1
04 12.09 ЮЗ 3 н/о н/о +12.6 +10.3 86 +11 +11 1029.8 983.3
05 12.09 ЮЗ 4 25 км 8/8 2000 м
[Sc]
+12.5 +10.4 87 +11 +11 1030.3 983.8
06 12.09 З 4 35 км 6/6 1500 м
[Sc]
+12.9 +10.4 85 +11 +11 1030.9 984.4 +12.4 +17.2
07 12.09 З 5 н/о н/о +15.4 +11.1 76 +14 +14 1031.0 984.9
08 12.09 З 4 н/о н/о +16.8 +11.2 70 +16 +16 1031.7 985.8
09 12.09 З 3 35 км 9/3 1000 м
[Sc As op]
+17.8 +10.1 61 +18 +19 1031.8 986.0
10 12.09 З 3 н/о н/о +18.3 +10.1 59 +19 +19 1032.1 986.4
11 12.09 З 3 н/о н/о +19.3 +9.5 53 +20 +20 1031.8 986.2
12 12.09 З 4 н/о н/о +20.1 +9.1 49 +21 +21 комфорт 1031.3 985.9
13 12.09 З 4 н/о н/о +20.8 +8.6 45 +22 +22 комфорт 1030.9 985.6
14 12.09 З 1 н/о н/о +21.4 +9.5 47 +23 +23 комфорт 1030.5 985.3
15 12.09 СЗ 1 45 км 4/3 1500 м
[Sc As trans]
+23.1 +11.2 47 +25 +28 комфорт 1029.8 984.9
16 12.09 СЗ 1 н/о н/о +22.5 +10.7 47 +24 +24 комфорт 1029.7 984.7
17 12.09 С 1 н/о н/о +19.3 +11.1 59 +21 +21 комфорт 1030.2 984.7
18 12.09 штиль 0 20 км 4/3 1500 м
[Sc As trans]
+17.9 +11.1 64 +18 +18 1030.6 984.9 +12.8 +23.5
20 12.09 ЮЗ 6 н/о н/о +15.7 +10.9 73 +14 +14 1031.7 985.6
21 12.09 ЮЗ 5 н/о н/о +14.9 +10.6 75 +13 +13 1031.8 985.6
22 12.09 ЮЗ 5 н/о н/о +14.6 +10.6 77 +13 +13 1032.1 985.8
23 12.09 ЮЗ 4 н/о н/о +14.1 +10.4 78 +13 +13 1032.1 985.7
00 13.09 ЮЗ 4 н/о н/о +14.1 +10.4 78 +13 +13 1032.2 985.8
01 13.09 ЮЗ 1 н/о н/о +12.7 +10.2 85 +13 +13 1032.2 985.6
02 13.09 СЗ 2 н/о н/о +13.8 +10.8 82 +13 +13 1032.1 985.7
03 13.09 Ю 1 н/о н/о +13.7 +10.8 83 +14 +14 1031.8 985.4
04 13.09 ЮЗ 2 н/о н/о +14.3 +10.8 79 +14 +14 1031.8 985.5
05 13.09 ЮЗ 2 25 км 6/4 1000 м
[Sc Ac lent]
+13.8 +10.9 83 +13 +13 1032.1 985.7
06 13.09 ЮЗ 4 30 км 4/3 1000 м
[Sc As op]
+14.7 +11.2 80 +13 +14 1031.9 985.6 +12.7 +18.4
07 13.09 ЮЗ 3 н/о н/о +16.1 +11.5 74 +16 +16 1031.9 985.9
08 13.09 ЮЗ 1 н/о н/о +18.4 +12.3 68 +20 +20 1031.7 986.0
09 13.09 ЮЗ 1 40 км 3/1 1000 м
[Cu hum Ac trans]
+19.8 +12.2 62 +22 +30 комфорт 1031.2 985.8
10 13.09 З 2 н/о н/о +21.3 +12.3 56 +23 +23 комфорт 1030.7 985.5
11 13.09 З 3 н/о н/о +23.3 +12.9 52 +26 +26 жарко 1030.4 985.5
12 13.09 СЗ 2 н/о н/о +24.0 +13.1 51 +26 +26 жарко 1030.0 985.3
13 13.09 СЗ 4 н/о н/о +23.4 +12.7 51 +26 +26 жарко 1030.0 985.2
14 13.09 СЗ 2 н/о н/о +24.8 +13.6 50 +27 +27 жарко 1029.4 984.8
15 13.09 СЗ 2 30 км 4/4 1500 м
[Cu med, cong]
+24.3 +13.8 52 +27 +28 жарко 1029.2 984.6
16 13.09 С 2 н/о н/о +23.8 +13.6 53 +26 +26 жарко 1029.2 984.5
17 13.09 СЗ 2 н/о н/о +21.6 +13.7 61 +24 +24 комфорт 1029.6 984.5
18 13.09 З 2 30 км 3/1 1500 м
[Cu hum As op]
+20.4 +13.8 66 +23 +23 комфорт 1029.8 984.6 +14.5 +25.1
19 13.09 ЮЗ 4 н/о н/о +19.0 +13.8 72 +20 +20 1030.6 985.1
20 13.09 ЮЗ 4 н/о н/о +18.5 +14.0 75 +19 +19 1030.9 985.3
21 13.09 ЮЗ 4 н/о н/о +18.4 +13.9 75 +19 +19 1031.0 985.4
22 13.09 ЮЗ 3 н/о н/о +18.2 +13.8 75 +19 +19 1031.0 985.4
23 13.09 ЮЗ 2 н/о н/о +17.7 +13.6 77 +18 +18 1030.9 985.2
00 14.09 ЮЗ 4 н/о н/о +17.5 +13.4 77 +17 +17 1030.9 985.2
01 14.09 ЮЗ 3 н/о н/о +17.1 +13.6 80 +17 +17 1030.7 984.9
02 14.09 ЮВ 1 н/о н/о +16.5 +13.6 83 +17 +17 1030.7 984.8
03 14.09 штиль 0 н/о н/о +16.4 +13.6 84 +16 +16 1030.7 984.8
04 14.09 ЮВ 1 н/о н/о +16.2 +13.7 85 +17 +17 1031.0 985.1
05 14.09 В 2 8000 м 9/9 300 м
[Sc]
+16.3 +13.6 84 +16 +16 1031.1 985.2
06 14.09 В 2 10 км 9/9 300 м
[Sc]
+16.8 +13.4 80 +17 +17 1031.3 985.4 +16.2 +20.5
07 14.09 СВ 4 н/о н/о +17.4 +13.5 78 +17 +17 1031.4 985.6
08 14.09 В 4 н/о н/о +18.7 +14.1 75 +19 +19 1031.3 985.7
09 14.09 СВ 7 10 км 9/6 600 м
[Sc As op]
+19.1 +13.8 71 +20 +20 1031.3 985.8
10 14.09 В 8 н/о н/о +19.4 +13.1 67 +20 +20 1031.1 985.6
11 14.09 В 7 н/о н/о +20.1 +12.8 63 +22 +22 комфорт 1030.0 984.7
12 14.09 СВ 5 н/о н/о +20.7 +12.7 60 +23 +23 комфорт 1029.6 984.4
13 14.09 СВ 5 н/о н/о +21.4 +12.8 58 +24 +24 комфорт 1029.3 984.2
14 14.09 В 6 н/о н/о +21.5 +13.0 58 +24 +24 комфорт 1028.6 983.6
15 14.09 СВ 5 9000 м 8/3 1000 м
[Sc diur, vesp Ac trans Ci sp]
+21.5 +12.3 56 +24 +24 комфорт 1028.4 983.4
16 14.09 В 5 н/о н/о +20.4 +12.2 59 +22 +22 комфорт 1028.2 983.0
17 14.09 В 4 н/о н/о +19.2 +11.3 60 +20 +20 1028.3 982.9
18 14.09 СВ 4 35 км 3/0
[Ac lent Ci sp]
+17.5 +11.4 67 +17 +17 1028.8 983.1 +16.6 +22.0
19 14.09 СВ 2 н/о н/о +17.0 +11.4 70 +17 +17 1029.1 983.3
20 14.09 СВ 3 н/о н/о +16.5 +11.3 71 +16 +16 1029.4 983.5
21 14.09 СВ 3 н/о н/о +15.3 +11.1 76 +15 +15 1029.3 983.3
22 14.09 СВ 3 н/о н/о +14.3 +11.0 81 +13 +13 1029.5 983.3
23 14.09 В 2 н/о н/о +13.6 +10.7 83 +13 +13 1029.4 983.1
00 15.09 СВ 3 н/о н/о +13.1 +10.5 84 +12 +12 1029.1 982.7
01 15.09 Ю 1 н/о н/о +12.6 +10.2 85 +13 +13 1028.4 982.0
02 15.09 З 1 н/о н/о +12.2 +10.2 88 +12 +12 1027.8 981.3
03 15.09 СВ 2 н/о н/о +11.7 +9.8 88 +11 +11 1028.0 981.4
04 15.09 ЮЗ 2 н/о н/о +11.3 +9.5 89 +10 +10 1027.7 981.1
05 15.09 ЮЗ 3 5000 м дымка 8/8 300 м
[St]
+11.6 +9.9 89 +10 +10 1027.5 980.9
06 15.09 С 1 1000 м мгла {туман} 10/10 100 м
[St]
+10.8 +9.9 94 +10 +10 1027.7 981.0 +10.7 +17.6
07 15.09 СВ 1 н/о н/о +12.1 +10.8 92 +12 +12 1027.6 981.1
08 15.09 штиль 0 н/о н/о +13.1 +11.5 90 +13 +13 1027.2 980.9
09 15.09 С 1 5000 м дымка 10/10 300 м
[St]
+14.6 +12.3 86 +15 +15 1026.4 980.4
10 15.09 В 1 н/о н/о +16.8 +13.4 80 +18 +18 1025.8 980.2
11 15.09 В 1 н/о н/о +19.7 +14.1 70 +23 +23 комфорт 1024.6 979.5
12 15.09 В 1 н/о н/о +22.6 +14.2 59 +26 +26 жарко 1023.4 978.8
13 15.09 З 1 н/о н/о +23.8 +14.5 56 +26 +26 жарко 1022.5 978.1
14 15.09 З 1 н/о н/о +24.8 +14.7 53 +27 +27 жарко 1021.7 977.5
15 15.09 З 1 11 км ясно +25.4 +15.0 53 +28 +32 жарко 1020.7 976.6
16 15.09 З 3 н/о н/о +24.8 +15.3 56 +28 +28 жарко 1020.4 976.2
17 15.09 СЗ 1 н/о н/о +21.7 +15.3 67 +25 +25 комфорт 1020.4 975.8
18 15.09 ЮЗ 2 10 км 1/1 1000 м
[Cu hum]
+21.0 +15.5 71 +25 +25 комфорт 1020.6 975.9 +10.7 +25.9
19 15.09 ЮЗ 4 н/о н/о +19.3 +15.5 79 +21 +21 комфорт 1021.2 976.2
20 15.09 ЮЗ 4 н/о н/о +18.2 +15.1 82 +18 +18 1021.6 976.4
21 15.09 ЮЗ 4 н/о н/о +17.6 +14.7 83 +17 +17 1021.6 976.3
22 15.09 ЮЗ 5 н/о н/о +17.2 +13.8 80 +17 +17 1021.8 976.4
23 15.09 ЮЗ 6 н/о н/о +16.6 +13.3 81 +16 +16 1021.8 976.3
00 16.09 ЮЗ 5 н/о н/о +16.3 +13.1 81 +15 +15 1021.3 975.8
01 16.09 ЮЗ 5 н/о н/о +16.1 +12.8 81 +15 +15 1020.8 975.3
02 16.09 ЮЗ 2 н/о н/о +14.8 +12.3 85 +14 +14 1021.0 975.3
03 16.09 ЮЗ 2 н/о н/о +14.5 +12.3 87 +14 +14 1020.9 975.1
04 16.09 ЮЗ 2 н/о н/о +14.6 +12.1 85 +14 +14 1020.5 974.8
05 16.09 ЮЗ 2 12 км 4/3 300 м
[Sc Ci fib]
+15.0 +12.3 84 +15 +15 1020.6 974.9
06 16.09 ЮЗ 3 12 км 4/4 300 м
[Sc diur, vesp]
+15.0 +12.3 84 +14 +15 1020.5 974.8 +13.9 +21.2
07 16.09 ЮЗ 3 н/о н/о +16.7 +13.0 79 +16 +16 1020.5 975.1
08 16.09 З 2 н/о н/о +19.8 +14.0 69 +22 +22 комфорт 1020.2 975.3
09 16.09 З 2 11 км 4/1 1000 м
[Sc diur, vesp Ci fib]
+21.0 +13.0 60 +24 +31 комфорт 1019.9 975.2
10 16.09 З 3 н/о н/о +22.2 +13.9 59 +25 +25 комфорт 1019.3 974.8
11 16.09 СЗ 1 н/о н/о +23.9 +15.4 59 +27 +27 жарко 1018.4 974.2
12 16.09 СЗ 3 н/о н/о +24.7 +14.4 53 +27 +27 жарко 1017.4 973.3
13 16.09 СЗ 3 н/о н/о +25.6 +13.6 47 +28 +28 жарко 1016.5 972.6
14 16.09 СЗ 3 н/о н/о +25.1 +13.3 48 +27 +27 жарко 1016.2 972.2
15 16.09 СЗ 2 10 км 9/4 1500 м
[Cu Sc Ac inh]
+25.7 +13.6 47 +28 +28 жарко 1015.9 972.0
16 16.09 С 2 н/о н/о +24.2 +14.6 55 +27 +27 жарко 1015.7 971.6
17 16.09 СВ 2 н/о н/о +22.4 +14.4 61 +26 +26 жарко 1015.7 971.4
18 16.09 штиль 0 10 км 9/6 1000 м
[Sc Ac trans]
+21.3 +14.6 66 +24 +24 комфорт 1016.0 971.5 +14.8 +26.3
19 16.09 З 1 н/о н/о +20.8 +14.8 69 +25 +25 комфорт 1016.4 971.8
20 16.09 ЮЗ 4 н/о н/о +20.1 +15.0 72 +23 +23 комфорт 1016.2 971.5 0.0
21 16.09 штиль 0 н/о н/о +19.5 +15.1 76 +21 +21 комфорт 1016.4 971.6 0.0
22 16.09 ЮЗ 4 н/о н/о +18.9 +15.9 83 +20 +20 1016.8 971.9 0.0
23 16.09 ЮЗ 4 н/о ливневой дождь н/о +18.7 +15.7 83 +20 +20 1016.4 971.5 0.1
00 17.09 ЮЗ 4 н/о {ливн. осадки} н/о +18.3 +15.6 84 +19 +19 1016.0 971.1 0.1
01 17.09 З 4 н/о н/о +18.2 +15.1 82 +18 +18 1015.9 971.0
02 17.09 З 4 н/о н/о +18.2 +14.8 81 +18 +18 1016.1 971.1
03 17.09 З 4 н/о н/о +17.9 +14.6 81 +18 +18 1016.3 971.3
04 17.09 З 4 н/о н/о +17.6 +13.9 79 +17 +17 1016.6 971.5
05 17.09 З 4 35 км {дождь} 10/5 2000 м
[Sc As op]
+17.6 +12.8 73 +17 +17 1017.0 971.9
06 17.09 ЮЗ 3 40 км 10/5 2000 м
[Sc As op]
+17.4 +13.0 75 +17 +17 1017.3 972.1 +17.4 +21.5 0.1
07 17.09 ЮЗ 3 н/о н/о +17.9 +12.1 69 +18 +18 1017.2 972.1 0.0
08 17.09 З 3 н/о н/о +18.6 +11.6 64 +19 +19 1017.0 972.0 0.0
09 17.09 З 4 45 км 9/4 1500 м
[Sc As op]
+19.2 +12.0 63 +20 +21 1017.1 972.2 0.0
10 17.09 З 5 н/о н/о +19.9 +11.5 58 +21 +21 комфорт 1016.7 971.9
11 17.09 ЮЗ 5 н/о н/о +20.6 +11.6 56 +22 +22 комфорт 1016.5 971.8
12 17.09 З 4 н/о н/о +20.6 +11.2 55 +23 +23 комфорт 1015.8 971.2 0.0
13 17.09 СЗ 4 н/о н/о +20.4 +12.7 61 +23 +23 комфорт 1015.6 971.0
14 17.09 СЗ 6 н/о н/о +19.9 +12.5 62 +21 +21 комфорт 1015.5 970.8
15 17.09 СЗ 5 6000 м 9/8 600 м
[Sc As trans]
+18.6 +12.7 69 +19 +19 1015.9 971.0
16 17.09 З 3 н/о н/о +18.3 +12.5 69 +19 +19 1016.1 971.1
17 17.09 З 4 н/о н/о +17.7 +12.1 70 +17 +17 1016.3 971.2
18 17.09 З 3 5000 м дымка 9/8 600 м
[Sc As trans]
+17.3 +11.8 70 +17 +17 1017.0 971.8 +17.3 +22.3 0.0
19 17.09 З 4 н/о н/о +16.6 +11.1 70 +16 +16 1017.6 972.3
20 17.09 З 5 н/о н/о +16.2 +10.7 70 +15 +15 1018.7 973.3
21 17.09 ЮЗ 4 н/о н/о +15.1 +9.8 71 +14 +14 1019.1 973.5
22 17.09 ЮЗ 4 н/о н/о +14.4 +9.7 73 +13 +13 1019.5 973.7
23 17.09 З 4 н/о н/о +14.1 +9.2 72 +13 +13 1020.1 974.3
00 18.09 З 5 н/о н/о +14.0 +8.1 68 +12 +12 1020.6 974.7
01 18.09 З 3 н/о н/о +13.5 +7.2 66 +12 +12 1020.8 974.8
02 18.09 ЮЗ 3 н/о н/о +12.9 +7.0 67 +12 +12 1021.6 975.5
03 18.09 З 4 н/о н/о +12.1 +6.2 67 +10 +10 1022.3 976.0
04 18.09 З 4 н/о н/о +11.8 +5.8 67 +10 +10 1023.2 976.8
05 18.09 З 4 15 км 8/8 600 м
[Sc]
+11.4 +5.3 66 +9 +9 1023.8 977.3
06 18.09 З 3 25 км 8/8 1000 м
[Sc]
+11.1 +5.2 67 +9 +10 1024.3 977.7 +10.9 +17.6
07 18.09 З 2 н/о н/о +11.5 +4.1 60 +11 +11 1024.7 978.2
08 18.09 СЗ 1 н/о н/о +11.5 +4.2 61 +12 +12 1025.2 978.7
09 18.09 СЗ 2 н/о н/о +12.7 +4.4 57 +12 +12 1024.9 978.6
10 18.09 С 1 н/о н/о +13.5 +4.5 54 +14 +14 1024.7 978.5
11 18.09 З 2 н/о н/о +15.8 +4.3 46 +16 +16 1023.9 978.1
12 18.09 З 2 н/о н/о +17.0 +5.3 46 +17 +17 1023.1 977.5
13 18.09 СЗ 2 н/о н/о +16.9 +3.1 40 +17 +17 1022.6 977.0
14 18.09 СЗ 3 н/о н/о +18.1 +2.0 34 +18 +18 1022.2 976.8
15 18.09 С 2 35 км 4/1 1500 м
[Sc Ci fib]
+18.2 +1.5 33 +19 +21 1022.0 976.6
16 18.09 СЗ 1 н/о н/о +17.0 -0.7 30 +18 +18 1022.2 976.6
17 18.09 З 3 н/о н/о +14.7 -0.7 35 +14 +14 1022.7 976.7
18 18.09 З 3 30 км 4/0
[Ci fib]
+13.0 +1.0 44 +12 +12 1023.6 977.3 +11.0 +18.4
19 18.09 ЮЗ 4 н/о н/о +11.0 +3.0 58 +9 +9 1024.5 977.9
20 18.09 ЮЗ 3 н/о н/о +10.2 +3.3 62 +8 +8 1025.2 978.4
21 18.09 ЮЗ 3 н/о н/о +9.4 +3.3 66 +7 +7 1025.4 978.5

 

Местоположение метеостанции Кремсмюнстер (Австрия): широта 48.05 долгота 14.13 высота над уровнем моря 389 м.

В архиве по умолчанию представлена погода в Кремсмюнстере за последнюю неделю. Архивные данные за месяц целиком и за предыдущие месяцы, начиная с января 2011 года, Вы можете получить, выбрав интересующий диапазон дат из раскрывающегося списка и нажав кнопку "Ввод!".


*Определитесь, кто Вы:
робот инопланетянин человек

Внимание! Время в таблицах - всемирное. Для получения местного времени необходимо прибавить поправку, которая равна 1 ч.

Смотрите также архив погоды в соседних городах и на ближайших метеорологических станциях:

Погода в Вельс / Шлайсхайм (Австрия) (14 км)
Погода в Линце (Австрия) (20 км)
Погода в Гмундене (Австрия) (30 км)
Погода в Линце город (Австрия) (30 км)
Погода в Вольфсегг-ам-Хаусрукке (Австрия) (35 км)
Погода в Виндишгарстене (Австрия) (39 км)
Погода в Фойеркогеле (Австрия) (40 км)
Погода в Вайдхофен-ан-дер-Ибсе (Австрия) (49 км)
Погода в Вайдхофен-ан-дер-Ибсе (Австрия) (52 км)
Погода в Рид-им-Иннкрайсе (Австрия) (52 км)

Пояснения к столбцам:

Ветер - указаны скорость ветра в м/с - средняя за 10 мин, порывы в срок и между сроками (в фигурных скобках) и направление, откуда дует ветер: С - северный, СВ - северо-восточный, В - восточный, ЮВ - юго-восточный, Ю - южный, ЮЗ - юго-западный, З - западный, СЗ - северо-западный.
Видимость - горизонтальная дальность видимости в метрах или километрах. При видимости от 1 до 10 км при отсутствии осадков обычно наблюдается дымка, при ухудшении видимости до 1 км и менее - туман. В сухую погоду видимость может ухудшаться дымом, пылью или мглою.
Явления - указаны атмосферные явления, наблюдавшиеся в срок или в последний час перед сроком; фигурными скобками обозначены явления, наблюдавшиеся между сроками (за 1-3 часа до срока); квадратными скобками обозначены град или гололедные отложения с указанием их диаметра в мм.
Облачность - указаны через наклонную черту общая и нижняя облачность в баллах и высота нижней границы облаков в метрах; квадратными скобками обозначены формы облаков: Ci - перистые, Cs - перисто-слоистые, Cc - перисто-кучевые, Ac - высококучевые, As - высокослоистые, Sc - слоисто-кучевые, Ns - слоисто-дождевые, Cu - кучевые, Cb - кучево-дождевые. Подробнее классификацию облаков см. в Атласе облаков (PDF).
T - Температура воздуха - температура, измеренная на высоте 2 м над землей.
Td - Температура точки росы - температура, при понижении до которой содержащийся в воздухе водяной пар достигнет насыщения.
f - Относительная влажность воздуха - влажноcть воздуха, измеренная на высоте 2 м над землей.
Te - Эффективная температура - температура, которую ощущает одетый по сезону человек в тени. Характеристика душности погоды. При расчете учитывается влияние влажности воздуха и скорости ветра на теплоощущения человека.
Tes - Эффективная температура на солнце - температура, которую ощущает человек, с поправкой на солнечный нагрев. Характеристика знойности погоды. Зависит от высоты солнца над горизонтом, облачности и скорости ветра. Ночью, в пасмурную погоду, а также при ветре 12 м/с и более поправка равна нулю.
P - Атмосферное давление - приведенное к уровню моря атмосферное давление.
Po - Атмосферное давление - измеренное на уровне метеостанции атмосферное давление.
Tmin - Минимальная температура - минимум температуры воздуха на высоте 2 м над землей.
Tmax - Максимальная температура - максимум температуры воздуха на высоте 2 м над землей.
R - Количество осадков - Количество выпавших осадков за период времени, мм. При наведении курсора мыши на число - период времени, за который выпало указанное количество осадков.
R24 - Количество осадков - Количество выпавших осадков за 24 часа, мм.
S - Снежный покров - Высота снежного покрова, см. При наведении курсора мыши на число - состояние снежного покрова и степень покрытия местности в баллах.